Content
SEND FEEDBACK

Daily
Averages
Monthly
Summary
United States of America

GRASS VALLEY, CALIFORNIA


Home > North America > United States > California
Elevation: 2628 feet     Latitude: 39 16N     Longitude: 121 02W

WEATHER
 
SELECT A DAY
Number of Records: 60,065;   Date Range: 9/21/11 - 7/27/14
 
SHARE

PRINT THIS DATA

[ ← Previous Day ]
WEATHER ALMANAC - JANUARY 6, 2013
[ Next Day → ]
[ °C ]   °F
Weather ElementAverageHighLow
Temperature38.5 °F42.8 °F (2:35 pm)35.6 °F (7:35 am)
Dewpoint35.2 °F39.2 °F (5:55 pm)26.6 °F (10:55 pm)
Humidity88.6 %100 % (7:35 am)53 % (10:55 pm)
Barometer30.09 in30.14 in (8:55 pm)30.05 in (12:55 am)
Wind Speed2.3 mph6.9 mph (4:55 am)
Weather ElementAverage
Visibility6 mi
Wind DirectionESE (98.7 °)

Weather ElementTotal
Precipitation---
Heating Degree Days25.8 (Base 65)
Averaged from 68 records on January 6, 2013
WEATHER CONDITIONS BREAKOUT
WIND DIRECTION BREAKOUT
WEATHER BY HOUR - JANUARY 6, 2013
[ °C ]   °F
Local TimeTemperatureDewpointHumidityBarometerVisibilityWind DirectionWind SpeedGust SpeedPrecipitationEventsConditions
12:35 AM39.2 °F32.0 °F75 %30.06 in8.0 miCalmMostly Cloudy
12:55 AM39.2 °F32.0 °F75 %30.05 in7.0 miCalmMostly Cloudy
1:15 AM39.2 °F32.0 °F75 %30.05 in7.0 miCalmPartly Cloudy
1:35 AM39.2 °F32.0 °F75 %30.05 in7.0 miCalmMostly Cloudy
1:55 AM39.2 °F32.0 °F75 %30.06 in7.0 miNNW (340°)3.5 mphMostly Cloudy
2:15 AM37.4 °F32.0 °F81 %30.06 in8.0 miCalmMostly Cloudy
2:35 AM37.4 °F32.0 °F81 %30.06 in8.0 miNorth (350°)3.5 mphOvercast
2:55 AM37.4 °F32.0 °F81 %30.07 in7.0 miCalmOvercast
3:15 AM37.4 °F33.8 °F87 %30.07 in5.0 miCalmOvercast
3:35 AM37.4 °F33.8 °F87 %30.07 in4.0 miNNE (30°)3.5 mphOvercast
3:55 AM37.4 °F33.8 °F87 %30.06 in4.0 miCalmOvercast
4:15 AM37.4 °F33.8 °F87 %30.06 in5.0 miNE (50°)5.8 mphOvercast
4:35 AM37.4 °F33.8 °F87 %30.06 in5.0 miENE (60°)4.6 mphScattered Clouds
4:55 AM37.4 °F33.8 °F87 %30.06 in7.0 miNE (50°)6.9 mphScattered Clouds
5:15 AM37.4 °F33.8 °F87 %30.05 in7.0 miNE (40°)6.9 mphMostly Cloudy
5:35 AM37.4 °F33.8 °F87 %30.05 in9.0 miEast (90°)6.9 mphOvercast
5:55 AM37.4 °F35.6 °F93 %30.05 in10.0 miEast (100°)5.8 mphOvercast
6:15 AM37.4 °F35.6 °F93 %30.06 in10.0 miESE (110°)5.8 mphOvercast
6:35 AM39.2 °F35.6 °F87 %30.06 in10.0 miEast (100°)5.8 mphOvercast
6:55 AM39.2 °F35.6 °F87 %30.07 in8.0 miEast (100°)5.8 mphOvercast
7:15 AM39.2 °F35.6 °F87 %30.07 in9.0 miCalmOvercast
7:35 AM35.6 °F35.6 °F100 %30.07 in2.5 miWNW (290°)4.6 mphMostly Cloudy
8:15 AM35.6 °F35.6 °F100 %30.07 in1.5 miCalmOvercast
8:35 AM35.6 °F35.6 °F100 %30.08 in1.2 miCalmOvercast
8:55 AM35.6 °F35.6 °F100 %30.09 in0.2 miCalmOvercast
9:15 AM35.6 °F35.6 °F100 %30.10 in0.2 miCalmOvercast
9:35 AM35.6 °F35.6 °F100 %30.11 in0.2 miSSE (160°)3.5 mphOvercast
9:55 AM37.4 °F37.4 °F100 %30.13 in1.5 miCalmOvercast
10:15 AM37.4 °F37.4 °F100 %30.13 in4.0 miCalmOvercast
10:35 AM37.4 °F37.4 °F100 %30.13 in4.0 miCalmOvercast
10:55 AM37.4 °F37.4 °F100 %30.12 in5.0 miSSE (150°)3.5 mphOvercast
11:15 AM39.2 °F37.4 °F93 %30.11 in5.0 miEast (90°)4.6 mphOvercast
11:35 AM37.4 °F35.6 °F93 %30.11 in6.0 miCalmOvercast
11:55 AM37.4 °F37.4 °F100 %30.10 in5.0 miCalmOvercast
12:15 PM37.4 °F37.4 °F100 %30.10 in5.0 miCalmOvercast
12:35 PM37.4 °F37.4 °F100 %30.09 in0.8 miCalmOvercast
12:55 PM39.2 °F37.4 °F93 %30.08 in7.0 miCalmOvercast
1:15 PM39.2 °F37.4 °F93 %30.08 in8.0 miCalmOvercast
1:35 PM41.0 °F37.4 °F87 %30.08 in9.0 miCalmOvercast
1:55 PM41.0 °F35.6 °F81 %30.09 in10.0 miCalmOvercast
2:15 PM41.0 °F37.4 °F87 %30.09 in10.0 miWNW (290°)3.5 mphOvercast
2:35 PM42.8 °F35.6 °F76 %30.08 in10.0 miWest (280°)4.6 mphOvercast
2:55 PM42.8 °F35.6 °F76 %30.08 in10.0 miCalmMostly Cloudy
3:15 PM41.0 °F35.6 °F81 %30.08 in10.0 miWNW (290°)4.6 mphOvercast
3:35 PM41.0 °F35.6 °F81 %30.08 in10.0 miCalmOvercast
3:55 PM41.0 °F37.4 °F87 %30.08 in10.0 miCalmOvercast
4:15 PM41.0 °F37.4 °F87 %30.09 in10.0 miCalmMostly Cloudy
4:35 PM41.0 °F37.4 °F87 %30.09 in10.0 miCalmMostly Cloudy
4:55 PM41.0 °F37.4 °F87 %30.09 in10.0 miCalmMostly Cloudy
5:15 PM41.0 °F37.4 °F87 %30.09 in10.0 miWNW (300°)3.5 mphOvercast
5:35 PM39.2 °F37.4 °F93 %30.09 in9.0 miWNW (300°)4.6 mphOvercast
5:55 PM39.2 °F39.2 °F100 %30.10 in0.2 miWNW (300°)4.6 mphOvercast
6:15 PM39.2 °F37.4 °F93 %30.10 in0.2 miNW (320°)5.8 mphOvercast
6:35 PM37.4 °F37.4 °F100 %30.10 in0.2 miNW (320°)3.5 mphOvercast
6:55 PM37.4 °F37.4 °F100 %30.11 in0.2 miCalmOvercast
7:15 PM37.4 °F37.4 °F100 %30.11 in0.2 miNW (310°)3.5 mphOvercast
7:35 PM37.4 °F37.4 °F100 %30.10 in0.2 miNNW (330°)4.6 mphOvercast
7:55 PM37.4 °F37.4 °F100 %30.11 in0.2 miNNW (340°)5.8 mphOvercast
8:15 PM37.4 °F37.4 °F100 %30.12 in0.5 miNorth (350°)5.8 mphOvercast
8:55 PM37.4 °F37.4 °F100 %30.14 in0.2 miNorth (350°)4.6 mphOvercast
9:15 PM37.4 °F37.4 °F100 %30.13 in0.2 miNorth (350°)4.6 mphOvercast
9:55 PM35.6 °F35.6 °F100 %30.11 in10.0 miCalmClear
10:15 PM35.6 °F35.6 °F100 %30.11 in10.0 miNE (50°)4.6 mphClear
10:35 PM41.0 °F28.4 °F61 %30.11 in10.0 miENE (60°)3.5 mphClear
10:55 PM42.8 °F26.6 °F53 %30.11 in10.0 miENE (60°)3.5 mphClear
11:15 PM41.0 °F26.6 °F57 %30.12 in10.0 miCalmClear
11:35 PM41.0 °F28.4 °F61 %30.13 in10.0 miCalmClear
11:55 PM37.4 °F28.4 °F70 %30.13 in10.0 miCalmClear
Hourly data recorded from KGOO, located miles away from Grass Valley, California







STORIES FROM OUR PARTNERS